Starlink 31623

operational
NORAD ID: 59272 Int'l Des: 2024-050 Owner: SPXS Country: US Constellation: starlink
LEOCIRCULAR

Starlink 31623について

説明を読み込み中...

リアルタイム位置

3D地球を読み込み中...

次回通過

高度履歴

Altitude vs Time

uPlot chart will show altitude changes over time

軌道要素

1 59272U 24050U 25306.45836983 .00013354 00000-0 46200-3 0 9999
2 59272 53.1585 51.6366 0001450 81.3697 278.7468 15.30212330 91074
Epoch: Nov 2, 2025 • Age: 36 hours

現在のステータス

高度 490.3 km
速度 7.62 km/s
衛星直下点 -43.12°S, 24.96°W
打ち上げ日 Mar 19, 2024
運用期間 1.6 years
タイプ internet

技術仕様

分類 Payload
質量 730.00 kg
乾燥質量 700.00 kg
総質量 730.00 kg
長さ 0.30 m
直径 4.10 m
スパン 29.00 m
形状 Box + pan
製造者 SPXS
バスタイプ Starlink V2M
フェーズステータス In Orbit
所有者/国 SPXS/US

大規模コンステレーション

Loading constellations...